Tabellarische Ansicht des 3.5.2016


Die einzelnen Werte des Tages

Uhrzeit Temperatur Luftdruck Luftfeuchte Wind Hi-Wind Taupunkt THW Index Wind Chill Heat Index Solar- strahlung Regen

00:00

9.6 C

1014.9 hpa

79 %

0.0 km/h aus 115

0.0 km/h aus ---

6.1 C

9.5 C

9.6 C

9.5 C

0 W/m

0.00 mm

00:05

9.5 C

1014.9 hpa

79 %

0.0 km/h aus 116

0.0 km/h aus ---

6.0 C

9.4 C

9.5 C

9.4 C

0 W/m

0.00 mm

00:10

9.4 C

1014.9 hpa

79 %

0.0 km/h aus 116

0.0 km/h aus ---

5.9 C

9.3 C

9.4 C

9.3 C

0 W/m

0.00 mm

00:15

9.3 C

1014.9 hpa

79 %

0.0 km/h aus 115

0.0 km/h aus ---

5.9 C

9.3 C

9.3 C

9.3 C

0 W/m

0.00 mm

00:20

9.2 C

1014.9 hpa

79 %

0.0 km/h aus 111

0.0 km/h aus ---

5.8 C

9.2 C

9.2 C

9.2 C

0 W/m

0.00 mm

00:25

9.1 C

1014.9 hpa

80 %

0.0 km/h aus 116

0.0 km/h aus ---

5.8 C

9.1 C

9.1 C

9.1 C

0 W/m

0.00 mm

00:30

9.0 C

1014.8 hpa

81 %

0.0 km/h aus 115

0.0 km/h aus ---

5.9 C

8.9 C

9.0 C

8.9 C

0 W/m

0.00 mm

00:35

8.9 C

1014.8 hpa

81 %

0.0 km/h aus 115

0.0 km/h aus ---

5.9 C

8.9 C

8.9 C

8.9 C

0 W/m

0.00 mm

00:40

8.8 C

1014.8 hpa

81 %

0.0 km/h aus 116

1.6 km/h aus E

5.7 C

8.8 C

8.8 C

8.8 C

0 W/m

0.00 mm

00:45

8.8 C

1014.6 hpa

81 %

1.6 km/h aus 115

4.8 km/h aus E

5.7 C

8.7 C

8.8 C

8.7 C

0 W/m

0.00 mm

00:50

8.7 C

1014.6 hpa

82 %

1.6 km/h aus 113

3.2 km/h aus ESE

5.8 C

8.6 C

8.7 C

8.6 C

0 W/m

0.00 mm

00:55

8.6 C

1014.6 hpa

83 %

3.2 km/h aus 115

4.8 km/h aus ESE

5.8 C

8.5 C

8.6 C

8.5 C

0 W/m

0.00 mm

01:00

8.5 C

1014.6 hpa

83 %

3.2 km/h aus 117

4.8 km/h aus ESE

5.8 C

8.4 C

8.5 C

8.4 C

0 W/m

0.00 mm

01:05

8.4 C

1014.6 hpa

83 %

1.6 km/h aus 116

4.8 km/h aus ESE

5.7 C

8.4 C

8.4 C

8.4 C

0 W/m

0.00 mm

01:10

8.4 C

1014.6 hpa

83 %

4.8 km/h aus 116

6.4 km/h aus ESE

5.7 C

7.9 C

8.0 C

8.3 C

0 W/m

0.00 mm

01:15

8.4 C

1014.4 hpa

83 %

4.8 km/h aus 115

6.4 km/h aus ESE

5.7 C

7.9 C

8.0 C

8.3 C

0 W/m

0.00 mm

01:20

8.3 C

1014.4 hpa

83 %

3.2 km/h aus 114

6.4 km/h aus ESE

5.6 C

8.3 C

8.3 C

8.3 C

0 W/m

0.00 mm

01:25

8.3 C

1014.4 hpa

83 %

0.0 km/h aus 116

6.4 km/h aus ESE

5.6 C

8.3 C

8.3 C

8.3 C

0 W/m

0.00 mm

01:30

8.3 C

1014.4 hpa

84 %

1.6 km/h aus 117

4.8 km/h aus ESE

5.8 C

8.3 C

8.3 C

8.3 C

0 W/m

0.00 mm

01:35

8.3 C

1014.4 hpa

84 %

1.6 km/h aus 117

3.2 km/h aus ESE

5.8 C

8.3 C

8.3 C

8.3 C

0 W/m

0.00 mm

01:40

8.3 C

1014.4 hpa

84 %

3.2 km/h aus 117

4.8 km/h aus ESE

5.8 C

8.3 C

8.3 C

8.3 C

0 W/m

0.00 mm

01:45

8.4 C

1014.2 hpa

84 %

0.0 km/h aus 117

4.8 km/h aus ESE

5.8 C

8.4 C

8.4 C

8.4 C

0 W/m

0.00 mm

01:50

8.4 C

1014.2 hpa

84 %

1.6 km/h aus 111

3.2 km/h aus ESE

5.9 C

8.4 C

8.4 C

8.4 C

0 W/m

0.00 mm

01:55

8.4 C

1014.2 hpa

84 %

3.2 km/h aus 115

4.8 km/h aus ESE

5.9 C

8.4 C

8.4 C

8.4 C

0 W/m

0.00 mm

02:00

8.4 C

1014.2 hpa

84 %

0.0 km/h aus 117

1.6 km/h aus ESE

5.9 C

8.4 C

8.4 C

8.4 C

0 W/m

0.00 mm

02:05

8.6 C

1014.2 hpa

84 %

0.0 km/h aus 115

0.0 km/h aus ---

6.0 C

8.6 C

8.6 C

8.6 C

0 W/m

0.00 mm

02:10

8.7 C

1014.2 hpa

85 %

0.0 km/h aus 117

0.0 km/h aus ---

6.3 C

8.7 C

8.7 C

8.7 C

0 W/m

0.00 mm

02:15

8.8 C

1014.2 hpa

85 %

0.0 km/h aus 117

3.2 km/h aus ESE

6.4 C

8.8 C

8.8 C

8.8 C

0 W/m

0.00 mm

02:20

8.9 C

1014.2 hpa

84 %

0.0 km/h aus 115

0.0 km/h aus ---

6.3 C

8.9 C

8.9 C

8.9 C

0 W/m

0.00 mm

02:25

8.9 C

1014.2 hpa

85 %

0.0 km/h aus 113

0.0 km/h aus ---

6.6 C

8.9 C

8.9 C

8.9 C

0 W/m

0.00 mm

02:30

9.0 C

1013.9 hpa

84 %

0.0 km/h aus 114

0.0 km/h aus ---

6.4 C

9.0 C

9.0 C

9.0 C

0 W/m

0.00 mm

02:35

9.1 C

1013.9 hpa

84 %

0.0 km/h aus 116

0.0 km/h aus ---

6.5 C

9.1 C

9.1 C

9.1 C

0 W/m

0.00 mm

02:40

9.1 C

1013.9 hpa

84 %

0.0 km/h aus 117

0.0 km/h aus ---

6.5 C

9.1 C

9.1 C

9.1 C

0 W/m

0.00 mm

02:45

9.1 C

1014.0 hpa

83 %

1.6 km/h aus 117

4.8 km/h aus ESE

6.4 C

9.1 C

9.1 C

9.1 C

0 W/m

0.00 mm

02:50

9.1 C

1014.0 hpa

83 %

1.6 km/h aus 112

4.8 km/h aus S

6.4 C

9.1 C

9.1 C

9.1 C

0 W/m

0.00 mm

02:55

9.2 C

1014.0 hpa

83 %

0.0 km/h aus 114

1.6 km/h aus S

6.4 C

9.2 C

9.2 C

9.2 C

0 W/m

0.00 mm

03:00

9.2 C

1013.9 hpa

83 %

0.0 km/h aus 117

0.0 km/h aus ---

6.4 C

9.2 C

9.2 C

9.2 C

0 W/m

0.00 mm

03:05

9.2 C

1013.9 hpa

83 %

0.0 km/h aus 117

0.0 km/h aus ---

6.4 C

9.2 C

9.2 C

9.2 C

0 W/m

0.00 mm

03:10

9.2 C

1013.9 hpa

83 %

0.0 km/h aus 117

0.0 km/h aus ---

6.4 C

9.2 C

9.2 C

9.2 C

0 W/m

0.00 mm

03:15

9.2 C

1013.8 hpa

83 %

0.0 km/h aus 115

0.0 km/h aus ---

6.4 C

9.2 C

9.2 C

9.2 C

0 W/m

0.00 mm

03:20

9.1 C

1013.8 hpa

83 %

0.0 km/h aus 113

0.0 km/h aus ---

6.4 C

9.1 C

9.1 C

9.1 C

0 W/m

0.00 mm

03:25

9.1 C

1013.8 hpa

83 %

0.0 km/h aus 115

3.2 km/h aus S

6.4 C

9.1 C

9.1 C

9.1 C

0 W/m

0.00 mm

03:30

9.1 C

1013.9 hpa

83 %

1.6 km/h aus 117

4.8 km/h aus S

6.4 C

9.1 C

9.1 C

9.1 C

0 W/m

0.00 mm

03:35

9.1 C

1013.9 hpa

83 %

0.0 km/h aus 117

4.8 km/h aus S

6.3 C

9.1 C

9.1 C

9.1 C

0 W/m

0.00 mm

03:40

9.0 C

1013.9 hpa

83 %

1.6 km/h aus 117

6.4 km/h aus SSW

6.3 C

9.0 C

9.0 C

9.0 C

0 W/m

0.00 mm

03:45

9.0 C

1014.0 hpa

83 %

1.6 km/h aus 117

8.0 km/h aus SSW

6.3 C

9.0 C

9.0 C

9.0 C

0 W/m

0.00 mm

03:50

8.9 C

1014.0 hpa

83 %

0.0 km/h aus 114

0.0 km/h aus ---

6.2 C

8.9 C

8.9 C

8.9 C

0 W/m

0.00 mm

03:55

8.9 C

1014.0 hpa

83 %

1.6 km/h aus 116

6.4 km/h aus SW

6.2 C

8.9 C

8.9 C

8.9 C

0 W/m

0.00 mm

04:00

9.0 C

1014.0 hpa

83 %

0.0 km/h aus 118

0.0 km/h aus ---

6.3 C

9.0 C

9.0 C

9.0 C

0 W/m

0.00 mm

04:05

9.1 C

1014.0 hpa

83 %

0.0 km/h aus 117

1.6 km/h aus WSW

6.3 C

9.1 C

9.1 C

9.1 C

0 W/m

0.00 mm

04:10

9.1 C

1014.0 hpa

83 %

0.0 km/h aus 117

3.2 km/h aus WSW

6.3 C

9.1 C

9.1 C

9.1 C

0 W/m

0.00 mm

04:15

9.1 C

1014.2 hpa

83 %

0.0 km/h aus 115

6.4 km/h aus SSW

6.4 C

9.1 C

9.1 C

9.1 C

0 W/m

0.00 mm

04:20

9.2 C

1014.2 hpa

82 %

0.0 km/h aus 113

1.6 km/h aus SSW

6.3 C

9.2 C

9.2 C

9.2 C

0 W/m

0.00 mm

04:25

9.2 C

1014.2 hpa

82 %

0.0 km/h aus 115

0.0 km/h aus ---

6.3 C

9.2 C

9.2 C

9.2 C

0 W/m

0.00 mm

04:30

9.2 C

1014.2 hpa

82 %

0.0 km/h aus 117

0.0 km/h aus ---

6.3 C

9.2 C

9.2 C

9.2 C

0 W/m

0.00 mm

04:35

9.2 C

1014.2 hpa

82 %

0.0 km/h aus 117

0.0 km/h aus ---

6.3 C

9.2 C

9.2 C

9.2 C

0 W/m

0.00 mm

04:40

9.2 C

1014.2 hpa

82 %

0.0 km/h aus 117

0.0 km/h aus ---

6.3 C

9.2 C

9.2 C

9.2 C

0 W/m

0.00 mm

04:45

9.2 C

1014.1 hpa

82 %

0.0 km/h aus 117

0.0 km/h aus ---

6.3 C

9.2 C

9.2 C

9.2 C

0 W/m

0.00 mm

04:50

9.2 C

1014.1 hpa

82 %

0.0 km/h aus 114

0.0 km/h aus ---

6.3 C

9.2 C

9.2 C

9.2 C

0 W/m

0.00 mm

04:55

9.2 C

1014.1 hpa

82 %

0.0 km/h aus 113

0.0 km/h aus ---

6.3 C

9.2 C

9.2 C

9.2 C

0 W/m

0.00 mm

05:00

9.1 C

1014.0 hpa

82 %

0.0 km/h aus 115

0.0 km/h aus ---

6.2 C

9.1 C

9.1 C

9.1 C

0 W/m

0.00 mm

05:05

9.0 C

1014.0 hpa

82 %

0.0 km/h aus 117

0.0 km/h aus ---

6.1 C

8.9 C

9.0 C

8.9 C

0 W/m

0.00 mm

05:10

9.0 C

1014.0 hpa

83 %

0.0 km/h aus 117

0.0 km/h aus ---

6.3 C

9.0 C

9.0 C

9.0 C

0 W/m

0.00 mm

05:15

8.9 C

1013.9 hpa

83 %

0.0 km/h aus 115

0.0 km/h aus ---

6.2 C

8.9 C

8.9 C

8.9 C

0 W/m

0.00 mm

05:20

8.9 C

1013.9 hpa

83 %

0.0 km/h aus 113

0.0 km/h aus ---

6.2 C

8.9 C

8.9 C

8.9 C

0 W/m

0.00 mm

05:25

8.8 C

1013.9 hpa

82 %

0.0 km/h aus 115

0.0 km/h aus ---

5.9 C

8.8 C

8.8 C

8.8 C

0 W/m

0.00 mm

05:30

8.8 C

1013.9 hpa

82 %

0.0 km/h aus 115

0.0 km/h aus ---

5.9 C

8.7 C

8.8 C

8.7 C

0 W/m

0.00 mm

05:35

8.7 C

1013.9 hpa

83 %

0.0 km/h aus 116

0.0 km/h aus ---

6.0 C

8.7 C

8.7 C

8.7 C

0 W/m

0.00 mm

05:40

8.7 C

1013.9 hpa

83 %

0.0 km/h aus 117

0.0 km/h aus ---

5.9 C

8.6 C

8.7 C

8.6 C

3 W/m

0.00 mm

05:45

8.7 C

1013.9 hpa

83 %

0.0 km/h aus 115

0.0 km/h aus ---

5.9 C

8.6 C

8.7 C

8.6 C

7 W/m

0.00 mm

05:50

8.6 C

1013.9 hpa

83 %

0.0 km/h aus 114

0.0 km/h aus ---

5.8 C

8.5 C

8.6 C

8.5 C

10 W/m

0.00 mm

05:55

8.6 C

1013.9 hpa

84 %

1.6 km/h aus 115

3.2 km/h aus SSW

6.0 C

8.6 C

8.6 C

8.6 C

13 W/m

0.00 mm

06:00

8.6 C

1013.9 hpa

85 %

1.6 km/h aus 117

3.2 km/h aus SSW

6.2 C

8.6 C

8.6 C

8.6 C

14 W/m

0.00 mm

06:05

8.6 C

1013.9 hpa

85 %

1.6 km/h aus 117

3.2 km/h aus SSW

6.2 C

8.6 C

8.6 C

8.6 C

14 W/m

0.00 mm

06:10

8.6 C

1013.9 hpa

86 %

3.2 km/h aus 117

3.2 km/h aus SSW

6.3 C

8.6 C

8.6 C

8.6 C

12 W/m

0.00 mm

06:15

8.6 C

1013.9 hpa

87 %

3.2 km/h aus 116

3.2 km/h aus SSW

6.5 C

8.6 C

8.6 C

8.6 C

9 W/m

0.00 mm

06:20

8.6 C

1013.9 hpa

87 %

1.6 km/h aus 114

3.2 km/h aus SSW

6.6 C

8.7 C

8.6 C

8.7 C

8 W/m

0.00 mm

06:25

8.6 C

1013.9 hpa

87 %

3.2 km/h aus 114

3.2 km/h aus SSW

6.6 C

8.7 C

8.6 C

8.7 C

12 W/m

0.00 mm

06:30

8.6 C

1013.9 hpa

87 %

0.0 km/h aus 117

3.2 km/h aus SSW

6.6 C

8.7 C

8.6 C

8.7 C

12 W/m

0.00 mm

06:35

8.7 C

1013.9 hpa

87 %

0.0 km/h aus 117

0.0 km/h aus ---

6.6 C

8.7 C

8.7 C

8.7 C

11 W/m

0.00 mm

06:40

8.7 C

1013.9 hpa

87 %

0.0 km/h aus 117

0.0 km/h aus ---

6.6 C

8.7 C

8.7 C

8.7 C

10 W/m

0.00 mm

06:45

8.7 C

1013.9 hpa

87 %

0.0 km/h aus 116

0.0 km/h aus ---

6.7 C

8.8 C

8.7 C

8.8 C

14 W/m

0.00 mm

06:50

8.7 C

1013.9 hpa

88 %

0.0 km/h aus 112

0.0 km/h aus ---

6.8 C

8.8 C

8.7 C

8.8 C

17 W/m

0.00 mm

06:55

8.8 C

1013.9 hpa

88 %

0.0 km/h aus 114

0.0 km/h aus ---

6.9 C

8.8 C

8.8 C

8.8 C

21 W/m

0.00 mm

07:00

8.8 C

1013.9 hpa

88 %

0.0 km/h aus 116

0.0 km/h aus ---

7.0 C

8.9 C

8.8 C

8.9 C

28 W/m

0.00 mm

07:05

8.9 C

1013.9 hpa

88 %

0.0 km/h aus 86

0.0 km/h aus ---

7.0 C

8.9 C

8.9 C

8.9 C

30 W/m

0.00 mm

07:10

8.9 C

1013.9 hpa

88 %

0.0 km/h aus 65

0.0 km/h aus ---

7.1 C

9.0 C

8.9 C

9.0 C

30 W/m

0.00 mm

07:15

9.1 C

1013.9 hpa

89 %

0.0 km/h aus 66

1.6 km/h aus SSW

7.3 C

9.2 C

9.1 C

9.2 C

30 W/m

0.00 mm

07:20

9.1 C

1013.9 hpa

89 %

0.0 km/h aus 61

0.0 km/h aus ---

7.4 C

9.2 C

9.1 C

9.2 C

30 W/m

0.00 mm

07:25

9.2 C

1013.9 hpa

89 %

0.0 km/h aus 65

0.0 km/h aus ---

7.4 C

9.3 C

9.2 C

9.3 C

30 W/m

0.00 mm

07:30

9.3 C

1013.9 hpa

90 %

0.0 km/h aus 73

0.0 km/h aus ---

7.8 C

9.5 C

9.3 C

9.5 C

30 W/m

0.00 mm

07:35

9.5 C

1013.9 hpa

90 %

1.6 km/h aus 74

3.2 km/h aus SSW

7.9 C

9.7 C

9.5 C

9.7 C

30 W/m

0.00 mm

07:40

9.7 C

1013.9 hpa

90 %

3.2 km/h aus 76

6.4 km/h aus SSW

8.1 C

9.8 C

9.7 C

9.8 C

26 W/m

0.00 mm

07:45

9.8 C

1014.1 hpa

90 %

4.8 km/h aus 71

8.0 km/h aus S

8.2 C

9.7 C

9.6 C

9.9 C

26 W/m

0.00 mm

07:50

9.8 C

1014.1 hpa

89 %

4.8 km/h aus 82

8.0 km/h aus S

8.1 C

9.8 C

9.6 C

10.0 C

32 W/m

0.00 mm

07:55

10.0 C

1014.1 hpa

89 %

3.2 km/h aus 74

8.0 km/h aus S

8.3 C

10.2 C

10.0 C

10.2 C

32 W/m

0.00 mm

08:00

10.1 C

1014.1 hpa

88 %

4.8 km/h aus 82

9.7 km/h aus SSW

8.2 C

10.1 C

9.9 C

10.2 C

48 W/m

0.00 mm

08:05

10.3 C

1014.1 hpa

86 %

4.8 km/h aus 78

9.7 km/h aus SSW

8.1 C

10.3 C

10.2 C

10.4 C

59 W/m

0.00 mm

08:10

10.5 C

1014.1 hpa

86 %

3.2 km/h aus 77

8.0 km/h aus SSW

8.3 C

10.6 C

10.5 C

10.6 C

88 W/m

0.00 mm

08:15

10.7 C

1014.3 hpa

85 %

4.8 km/h aus 67

9.7 km/h aus S

8.3 C

10.6 C

10.6 C

10.7 C

88 W/m

0.00 mm

08:20

10.9 C

1014.3 hpa

85 %

4.8 km/h aus 73

8.0 km/h aus SSW

8.5 C

10.8 C

10.8 C

10.9 C

111 W/m

0.00 mm

08:25

11.1 C

1014.3 hpa

84 %

4.8 km/h aus 69

6.4 km/h aus S

8.5 C

11.0 C

11.0 C

11.1 C

111 W/m

0.00 mm

08:30

11.2 C

1014.4 hpa

83 %

3.2 km/h aus 68

6.4 km/h aus SSW

8.4 C

11.1 C

11.2 C

11.1 C

51 W/m

0.00 mm

08:35

11.3 C

1014.4 hpa

83 %

9.7 km/h aus 82

29.0 km/h aus W

8.5 C

10.2 C

10.2 C

11.2 C

19 W/m

0.00 mm

08:40

11.2 C

1014.4 hpa

80 %

19.3 km/h aus 88

38.6 km/h aus WNW

7.8 C

8.1 C

8.2 C

11.1 C

23 W/m

0.00 mm

08:45

10.8 C

1015.1 hpa

78 %

17.7 km/h aus 73

30.6 km/h aus W

7.1 C

7.9 C

8.1 C

10.7 C

32 W/m

0.00 mm

08:50

10.6 C

1015.1 hpa

78 %

12.9 km/h aus 83

27.4 km/h aus WNW

6.9 C

8.6 C

8.7 C

10.4 C

120 W/m

0.00 mm

08:55

10.4 C

1015.1 hpa

78 %

12.9 km/h aus 81

27.4 km/h aus WNW

6.7 C

8.4 C

8.5 C

10.3 C

105 W/m

0.00 mm

09:00

10.2 C

1015.3 hpa

79 %

9.7 km/h aus 79

22.5 km/h aus WNW

6.7 C

8.9 C

9.0 C

10.2 C

73 W/m

0.00 mm

09:05

10.1 C

1015.3 hpa

79 %

12.9 km/h aus 91

29.0 km/h aus WNW

6.6 C

8.1 C

8.2 C

10.1 C

102 W/m

0.00 mm

09:10

10.0 C

1015.3 hpa

79 %

8.0 km/h aus 99

20.9 km/h aus WNW

6.5 C

9.0 C

9.0 C

10.0 C

82 W/m

0.00 mm

09:15

10.0 C

1015.4 hpa

80 %

9.7 km/h aus 100

27.4 km/h aus WNW

6.7 C

8.7 C

8.7 C

10.0 C

77 W/m

0.00 mm

09:20

9.9 C

1015.4 hpa

80 %

9.7 km/h aus 98

30.6 km/h aus WNW

6.6 C

8.6 C

8.6 C

9.9 C

47 W/m

0.00 mm

09:25

9.8 C

1015.4 hpa

80 %

9.7 km/h aus 105

19.3 km/h aus W

6.5 C

8.4 C

8.4 C

9.8 C

44 W/m

0.00 mm

09:30

9.7 C

1015.9 hpa

81 %

9.7 km/h aus 99

22.5 km/h aus W

6.6 C

8.4 C

8.4 C

9.7 C

52 W/m

0.00 mm

09:35

9.6 C

1015.9 hpa

82 %

9.7 km/h aus 97

20.9 km/h aus NW

6.7 C

8.3 C

8.3 C

9.6 C

59 W/m

0.00 mm

09:40

9.6 C

1015.9 hpa

83 %

11.3 km/h aus 100

20.9 km/h aus NW

6.8 C

7.9 C

7.9 C

9.6 C

62 W/m

0.00 mm

09:45

9.4 C

1016.1 hpa

84 %

9.7 km/h aus 95

22.5 km/h aus NW

6.9 C

8.1 C

8.1 C

9.5 C

72 W/m

0.00 mm

09:50

9.3 C

1016.1 hpa

84 %

12.9 km/h aus 81

20.9 km/h aus WNW

6.8 C

7.3 C

7.3 C

9.3 C

81 W/m

0.00 mm

09:55

9.3 C

1016.1 hpa

85 %

6.4 km/h aus 84

20.9 km/h aus WNW

6.9 C

8.6 C

8.6 C

9.3 C

144 W/m

0.00 mm

10:00

9.3 C

1016.5 hpa

86 %

3.2 km/h aus 95

14.5 km/h aus W

7.1 C

9.3 C

9.3 C

9.3 C

130 W/m

0.00 mm

10:05

9.3 C

1016.5 hpa

86 %

4.8 km/h aus 98

14.5 km/h aus W

7.1 C

9.1 C

9.0 C

9.3 C

144 W/m

0.00 mm

10:10

9.3 C

1016.5 hpa

87 %

4.8 km/h aus 103

16.1 km/h aus W

7.3 C

9.2 C

9.1 C

9.4 C

148 W/m

0.00 mm

10:15

9.3 C

1016.7 hpa

87 %

3.2 km/h aus 111

14.5 km/h aus WNW

7.2 C

9.4 C

9.3 C

9.4 C

138 W/m

0.25 mm

10:20

9.3 C

1016.7 hpa

87 %

4.8 km/h aus 113

16.1 km/h aus W

7.2 C

9.1 C

9.0 C

9.4 C

94 W/m

0.00 mm

10:25

9.2 C

1016.7 hpa

87 %

4.8 km/h aus 91

11.3 km/h aus WNW

7.1 C

8.9 C

8.9 C

9.2 C

71 W/m

0.25 mm

10:30

9.1 C

1016.9 hpa

88 %

4.8 km/h aus 78

11.3 km/h aus WNW

7.2 C

8.8 C

8.7 C

9.1 C

57 W/m

0.00 mm

10:35

8.9 C

1016.9 hpa

88 %

4.8 km/h aus 112

11.3 km/h aus NW

7.1 C

8.7 C

8.6 C

9.0 C

65 W/m

0.51 mm

10:40

8.9 C

1016.9 hpa

89 %

1.6 km/h aus 97

8.0 km/h aus WNW

7.2 C

9.0 C

8.9 C

9.0 C

97 W/m

0.00 mm

10:45

8.9 C

1017.0 hpa

89 %

3.2 km/h aus 116

11.3 km/h aus WSW

7.2 C

9.1 C

8.9 C

9.1 C

125 W/m

0.25 mm

10:50

9.0 C

1017.0 hpa

90 %

3.2 km/h aus 116

9.7 km/h aus WSW

7.4 C

9.1 C

9.0 C

9.1 C

168 W/m

0.00 mm

10:55

9.2 C

1017.0 hpa

92 %

1.6 km/h aus 117

8.0 km/h aus WNW

8.0 C

9.4 C

9.2 C

9.4 C

244 W/m

0.00 mm

11:00

9.3 C

1017.2 hpa

92 %

1.6 km/h aus 117

8.0 km/h aus WNW

8.1 C

9.6 C

9.3 C

9.6 C

272 W/m

0.00 mm

11:05

9.4 C

1017.2 hpa

90 %

4.8 km/h aus 114

9.7 km/h aus WNW

7.9 C

9.3 C

9.2 C

9.6 C

298 W/m

0.00 mm

11:10

9.6 C

1017.2 hpa

90 %

6.4 km/h aus 115

9.7 km/h aus NW

8.0 C

9.0 C

8.8 C

9.7 C

358 W/m

0.00 mm

11:15

9.4 C

1017.5 hpa

89 %

8.0 km/h aus 117

14.5 km/h aus WSW

7.7 C

8.5 C

8.3 C

9.6 C

216 W/m

0.00 mm

11:20

9.6 C

1017.5 hpa

90 %

9.7 km/h aus 116

19.3 km/h aus W

8.0 C

8.3 C

8.2 C

9.7 C

263 W/m

0.00 mm

11:25

9.9 C

1017.5 hpa

89 %

6.4 km/h aus 116

16.1 km/h aus WSW

8.2 C

9.4 C

9.3 C

10.1 C

326 W/m

0.00 mm

11:30

10.3 C

1017.5 hpa

89 %

6.4 km/h aus 113

16.1 km/h aus W

8.6 C

9.9 C

9.8 C

10.4 C

405 W/m

0.00 mm

11:35

10.3 C

1017.5 hpa

87 %

3.2 km/h aus 114

11.3 km/h aus W

8.3 C

10.4 C

10.3 C

10.4 C

383 W/m

0.00 mm

11:40

10.5 C

1017.5 hpa

88 %

6.4 km/h aus 116

11.3 km/h aus WSW

8.6 C

10.0 C

9.9 C

10.6 C

381 W/m

0.00 mm

11:45

10.4 C

1017.5 hpa

86 %

11.3 km/h aus 117

20.9 km/h aus W

8.2 C

9.1 C

9.0 C

10.5 C

358 W/m

0.00 mm

11:50

10.7 C

1017.5 hpa

86 %

8.0 km/h aus 117

20.9 km/h aus WSW

8.4 C

9.8 C

9.8 C

10.7 C

390 W/m

0.00 mm

11:55

11.0 C

1017.5 hpa

86 %

8.0 km/h aus 116

17.7 km/h aus WSW

8.7 C

10.2 C

10.2 C

11.0 C

511 W/m

0.00 mm

12:00

11.1 C

1017.5 hpa

85 %

8.0 km/h aus 114

22.5 km/h aus NW

8.6 C

10.3 C

10.3 C

11.1 C

413 W/m

0.00 mm

12:05

11.1 C

1017.5 hpa

83 %

6.4 km/h aus 115

14.5 km/h aus WSW

8.3 C

10.6 C

10.7 C

11.1 C

376 W/m

0.00 mm

12:10

11.1 C

1017.5 hpa

83 %

8.0 km/h aus 117

19.3 km/h aus W

8.3 C

10.2 C

10.3 C

11.0 C

270 W/m

0.00 mm

12:15

10.9 C

1017.9 hpa

82 %

8.0 km/h aus 117

19.3 km/h aus W

8.0 C

10.1 C

10.1 C

10.9 C

244 W/m

0.00 mm

12:20

10.8 C

1017.9 hpa

83 %

6.4 km/h aus 117

14.5 km/h aus WSW

8.1 C

10.3 C

10.3 C

10.8 C

206 W/m

0.00 mm

12:25

10.7 C

1017.9 hpa

83 %

6.4 km/h aus 115

11.3 km/h aus SW

8.0 C

10.2 C

10.2 C

10.7 C

169 W/m

0.00 mm

12:30

10.7 C

1018.0 hpa

83 %

8.0 km/h aus 115

16.1 km/h aus NW

7.9 C

9.8 C

9.8 C

10.7 C

232 W/m

0.00 mm

12:35

10.9 C

1018.0 hpa

84 %

6.4 km/h aus 115

11.3 km/h aus W

8.3 C

10.4 C

10.4 C

10.9 C

258 W/m

0.00 mm

12:40

11.0 C

1018.0 hpa

83 %

6.4 km/h aus 116

14.5 km/h aus WNW

8.2 C

10.5 C

10.6 C

10.9 C

282 W/m

0.00 mm

12:45

11.1 C

1018.0 hpa

82 %

6.4 km/h aus 117

12.9 km/h aus W

8.2 C

10.6 C

10.7 C

11.1 C

248 W/m

0.00 mm

12:50

11.1 C

1018.0 hpa

81 %

9.7 km/h aus 114

17.7 km/h aus WSW

8.0 C

9.9 C

10.0 C

11.0 C

258 W/m

0.00 mm

12:55

11.1 C

1018.0 hpa

81 %

4.8 km/h aus 113

11.3 km/h aus WNW

8.0 C

10.9 C

11.1 C

11.0 C

264 W/m

0.00 mm

13:00

11.4 C

1017.9 hpa

82 %

4.8 km/h aus 116

9.7 km/h aus W

8.4 C

11.3 C

11.4 C

11.3 C

334 W/m

0.00 mm

13:05

11.7 C

1017.9 hpa

75 %

12.9 km/h aus 115

22.5 km/h aus WNW

7.4 C

9.8 C

10.1 C

11.4 C

496 W/m

0.00 mm

13:10

12.4 C

1017.9 hpa

73 %

11.3 km/h aus 117

20.9 km/h aus WNW

7.7 C

11.1 C

11.4 C

12.1 C

646 W/m

0.00 mm

13:15

12.4 C

1017.8 hpa

70 %

11.3 km/h aus 116

27.4 km/h aus W

7.1 C

11.0 C

11.4 C

12.1 C

595 W/m

0.00 mm

13:20

13.4 C

1017.8 hpa

72 %

11.3 km/h aus 113

20.9 km/h aus NW

8.4 C

12.1 C

12.5 C

13.0 C

1032 W/m

0.00 mm

13:25

13.7 C

1017.8 hpa

67 %

11.3 km/h aus 116

22.5 km/h aus WNW

7.6 C

12.3 C

12.8 C

13.2 C

998 W/m

0.00 mm

13:30

13.9 C

1017.9 hpa

65 %

11.3 km/h aus 117

22.5 km/h aus NW

7.4 C

12.6 C

13.1 C

13.3 C

996 W/m

0.00 mm

13:35

13.9 C

1017.9 hpa

67 %

11.3 km/h aus 117

22.5 km/h aus NW

7.9 C

12.6 C

13.1 C

13.4 C

963 W/m

0.00 mm

13:40

14.3 C

1017.9 hpa

66 %

6.4 km/h aus 116

17.7 km/h aus W

8.1 C

13.8 C

14.3 C

13.8 C

1019 W/m

0.00 mm

13:45

14.3 C

1017.6 hpa

62 %

9.7 km/h aus 114

20.9 km/h aus NW

7.1 C

13.1 C

13.8 C

13.6 C

1001 W/m

0.00 mm

13:50

14.4 C

1017.6 hpa

64 %

11.3 km/h aus 116

29.0 km/h aus W

7.7 C

13.2 C

13.8 C

13.8 C

977 W/m

0.00 mm

13:55

14.6 C

1017.6 hpa

62 %

11.3 km/h aus 116

20.9 km/h aus W

7.4 C

13.2 C

13.9 C

13.9 C

1039 W/m

0.00 mm

14:00

15.1 C

1017.6 hpa

56 %

9.7 km/h aus 117

24.1 km/h aus WSW

6.3 C

13.9 C

14.7 C

14.2 C

1141 W/m

0.00 mm

14:05

14.3 C

1017.6 hpa

55 %

19.3 km/h aus 114

46.7 km/h aus WNW

5.4 C

10.8 C

11.7 C

13.4 C

488 W/m

0.00 mm

14:10

12.2 C

1017.6 hpa

63 %

22.5 km/h aus 115

37.0 km/h aus WNW

5.4 C

8.3 C

8.9 C

11.6 C

96 W/m

0.00 mm

14:15

10.7 C

1018.1 hpa

70 %

12.9 km/h aus 117

32.2 km/h aus NNW

5.4 C

8.6 C

8.8 C

10.4 C

151 W/m

0.00 mm

14:20

10.3 C

1018.1 hpa

73 %

9.7 km/h aus 117

20.9 km/h aus NW

5.6 C

8.9 C

9.1 C

10.1 C

295 W/m

0.00 mm

14:25

10.6 C

1018.1 hpa

72 %

4.8 km/h aus 117

16.1 km/h aus NW

5.7 C

10.2 C

10.4 C

10.3 C

333 W/m

0.00 mm

14:30

11.1 C

1018.1 hpa

69 %

3.2 km/h aus 115

14.5 km/h aus NNW

5.6 C

10.8 C

11.1 C

10.8 C

374 W/m

0.00 mm

14:35

11.7 C

1018.1 hpa

66 %

4.8 km/h aus 115

17.7 km/h aus NW

5.6 C

11.2 C

11.7 C

11.2 C

506 W/m

0.00 mm

14:40

12.4 C

1018.1 hpa

66 %

6.4 km/h aus 117

19.3 km/h aus WNW

6.2 C

11.6 C

12.1 C

11.9 C

401 W/m

0.00 mm

14:45

12.6 C

1018.2 hpa

64 %

6.4 km/h aus 117

20.9 km/h aus NW

5.9 C

11.7 C

12.3 C

11.9 C

336 W/m

0.00 mm

14:50

12.3 C

1018.2 hpa

65 %

6.4 km/h aus 117

22.5 km/h aus WNW

5.9 C

11.4 C

12.0 C

11.7 C

250 W/m

0.00 mm

14:55

12.2 C

1018.2 hpa

66 %

8.0 km/h aus 116

19.3 km/h aus WNW

6.0 C

11.1 C

11.6 C

11.7 C

291 W/m

0.00 mm

15:00

12.3 C

1018.5 hpa

68 %

3.2 km/h aus 114

14.5 km/h aus WNW

6.6 C

11.9 C

12.3 C

11.9 C

281 W/m

0.00 mm

15:05

12.6 C

1018.5 hpa

64 %

11.3 km/h aus 117

25.7 km/h aus WNW

5.9 C

10.9 C

11.5 C

11.9 C

364 W/m

0.00 mm

15:10

13.0 C

1018.5 hpa

61 %

11.3 km/h aus 117

27.4 km/h aus WNW

5.6 C

11.4 C

12.1 C

12.3 C

470 W/m

0.00 mm

15:15

12.9 C

1018.5 hpa

58 %

12.9 km/h aus 117

20.9 km/h aus NW

4.9 C

10.8 C

11.6 C

12.2 C

380 W/m

0.00 mm

15:20

12.9 C

1018.5 hpa

59 %

9.7 km/h aus 116

20.9 km/h aus NW

5.1 C

11.5 C

12.2 C

12.2 C

355 W/m

0.00 mm

15:25

13.1 C

1018.5 hpa

59 %

6.4 km/h aus 114

19.3 km/h aus NW

5.2 C

12.2 C

12.9 C

12.3 C

333 W/m

0.00 mm

15:30

12.7 C

1018.6 hpa

60 %

14.5 km/h aus 116

30.6 km/h aus WNW

5.1 C

10.2 C

10.9 C

12.0 C

208 W/m

0.00 mm

15:35

12.3 C

1018.6 hpa

62 %

12.9 km/h aus 116

24.1 km/h aus WNW

5.3 C

10.2 C

10.8 C

11.7 C

190 W/m

0.00 mm

15:40

12.2 C

1018.6 hpa

63 %

9.7 km/h aus 117

19.3 km/h aus WSW

5.3 C

10.7 C

11.3 C

11.6 C

162 W/m

0.00 mm

15:45

12.0 C

1018.6 hpa

62 %

8.0 km/h aus 116

19.3 km/h aus W

4.9 C

10.7 C

11.3 C

11.4 C

139 W/m

0.00 mm

15:50

11.9 C

1018.6 hpa

62 %

3.2 km/h aus 115

11.3 km/h aus WNW

4.8 C

11.3 C

11.9 C

11.3 C

149 W/m

0.00 mm

15:55

11.9 C

1018.6 hpa

63 %

4.8 km/h aus 117

14.5 km/h aus W

5.1 C

11.4 C

11.9 C

11.4 C

192 W/m

0.00 mm

16:00

12.2 C

1018.6 hpa

59 %

6.4 km/h aus 117

16.1 km/h aus W

4.4 C

11.2 C

11.9 C

11.5 C

279 W/m

0.00 mm

16:05

13.1 C

1018.6 hpa

59 %

6.4 km/h aus 117

16.1 km/h aus WNW

5.3 C

12.2 C

12.9 C

12.3 C

780 W/m

0.00 mm

16:10

14.2 C

1018.6 hpa

56 %

9.7 km/h aus 115

19.3 km/h aus NW

5.6 C

12.9 C

13.7 C

13.4 C

817 W/m

0.00 mm

16:15

14.4 C

1018.6 hpa

52 %

12.9 km/h aus 114

24.1 km/h aus WNW

4.6 C

12.3 C

13.3 C

13.4 C

717 W/m

0.00 mm

16:20

14.0 C

1018.6 hpa

52 %

16.1 km/h aus 117

25.7 km/h aus WNW

4.3 C

11.1 C

12.1 C

13.0 C

649 W/m

0.00 mm

16:25

14.2 C

1018.6 hpa

52 %

14.5 km/h aus 117

30.6 km/h aus NW

4.4 C

11.6 C

12.6 C

13.2 C

705 W/m

0.00 mm

16:30

14.3 C

1018.6 hpa

54 %

16.1 km/h aus 117

24.1 km/h aus NW

5.1 C

11.4 C

12.4 C

13.3 C

667 W/m

0.00 mm

16:35

14.3 C

1018.6 hpa

56 %

12.9 km/h aus 116

29.0 km/h aus WNW

5.6 C

12.3 C

13.2 C

13.4 C

679 W/m

0.00 mm

16:40

14.6 C

1018.6 hpa

55 %

16.1 km/h aus 114

33.8 km/h aus NW

5.6 C

11.8 C

12.7 C

13.7 C

662 W/m

0.00 mm

16:45

14.3 C

1018.8 hpa

54 %

14.5 km/h aus 117

30.6 km/h aus NW

5.1 C

11.9 C

12.8 C

13.4 C

657 W/m

0.00 mm

16:50

14.6 C

1018.8 hpa

53 %

11.3 km/h aus 117

24.1 km/h aus WNW

5.1 C

12.9 C

13.9 C

13.6 C

650 W/m

0.00 mm

16:55

14.4 C

1018.8 hpa

52 %

14.5 km/h aus 118

32.2 km/h aus WNW

4.7 C

11.9 C

12.9 C

13.4 C

552 W/m

0.00 mm

17:00

14.2 C

1018.8 hpa

53 %

16.1 km/h aus 115

25.7 km/h aus WNW

4.8 C

11.4 C

12.3 C

13.3 C

361 W/m

0.00 mm

17:05

14.3 C

1018.8 hpa

50 %

14.5 km/h aus 114

27.4 km/h aus NW

4.0 C

11.7 C

12.8 C

13.2 C

586 W/m

0.00 mm

17:10

14.2 C

1018.8 hpa

52 %

16.1 km/h aus 116

25.7 km/h aus NW

4.4 C

11.3 C

12.3 C

13.2 C

157 W/m

0.00 mm

17:15

13.8 C

1018.9 hpa

52 %

11.3 km/h aus 117

22.5 km/h aus NW

4.1 C

12.1 C

13.1 C

12.8 C

268 W/m

0.00 mm

17:20

13.7 C

1018.9 hpa

54 %

8.0 km/h aus 117

24.1 km/h aus NW

4.6 C

12.4 C

13.4 C

12.8 C

186 W/m

0.00 mm

17:25

13.6 C

1018.9 hpa

51 %

12.9 km/h aus 115

22.5 km/h aus NW

3.7 C

11.4 C

12.4 C

12.6 C

241 W/m

0.00 mm

17:30

13.8 C

1019.1 hpa

51 %

11.3 km/h aus 116

25.7 km/h aus NNW

3.8 C

12.0 C

13.0 C

12.8 C

303 W/m

0.00 mm

17:35

14.2 C

1019.1 hpa

49 %

12.9 km/h aus 117

24.1 km/h aus NNW

3.6 C

12.0 C

13.1 C

13.1 C

655 W/m

0.00 mm

17:40

14.6 C

1019.1 hpa

48 %

19.3 km/h aus 116

29.0 km/h aus NW

3.7 C

10.9 C

12.1 C

13.4 C

595 W/m

0.00 mm

17:45

14.2 C

1019.1 hpa

49 %

14.5 km/h aus 117

27.4 km/h aus NW

3.6 C

11.5 C

12.6 C

13.1 C

111 W/m

0.00 mm

17:50

13.5 C

1019.1 hpa

50 %

19.3 km/h aus 113

32.2 km/h aus W

3.3 C

9.8 C

10.8 C

12.4 C

107 W/m

0.00 mm

17:55

13.2 C

1019.1 hpa

52 %

14.5 km/h aus 116

27.4 km/h aus WNW

3.6 C

10.6 C

11.6 C

12.2 C

118 W/m

0.00 mm

18:00

13.2 C

1019.2 hpa

50 %

12.9 km/h aus 117

25.7 km/h aus WNW

3.0 C

10.8 C

11.8 C

12.1 C

260 W/m

0.00 mm

18:05

13.6 C

1019.2 hpa

49 %

16.1 km/h aus 117

27.4 km/h aus NW

3.0 C

10.4 C

11.6 C

12.4 C

366 W/m

0.00 mm

18:10

13.8 C

1019.2 hpa

48 %

12.9 km/h aus 117

24.1 km/h aus WNW

3.0 C

11.6 C

12.7 C

12.7 C

410 W/m

0.00 mm

18:15

13.8 C

1019.2 hpa

47 %

14.5 km/h aus 114

25.7 km/h aus NW

2.7 C

11.1 C

12.2 C

12.7 C

390 W/m

0.00 mm

18:20

13.9 C

1019.2 hpa

49 %

11.3 km/h aus 116

22.5 km/h aus NW

3.3 C

12.0 C

13.1 C

12.8 C

362 W/m

0.00 mm

18:25

13.7 C

1019.2 hpa

48 %

12.9 km/h aus 117

30.6 km/h aus NW

2.9 C

11.4 C

12.5 C

12.6 C

366 W/m

0.00 mm

18:30

13.8 C

1019.3 hpa

47 %

17.7 km/h aus 117

30.6 km/h aus WNW

2.7 C

10.4 C

11.6 C

12.7 C

389 W/m

0.00 mm

18:35

13.8 C

1019.3 hpa

51 %

6.4 km/h aus 117

20.9 km/h aus WNW

3.8 C

12.8 C

13.8 C

12.8 C

360 W/m

0.00 mm

18:40

13.8 C

1019.3 hpa

49 %

11.3 km/h aus 113

24.1 km/h aus WNW

3.2 C

11.9 C

13.0 C

12.7 C

309 W/m

0.00 mm

18:45

13.6 C

1019.6 hpa

48 %

11.3 km/h aus 116

20.9 km/h aus WSW

2.7 C

11.6 C

12.7 C

12.4 C

264 W/m

0.00 mm

18:50

13.3 C

1019.6 hpa

49 %

9.7 km/h aus 117

22.5 km/h aus WNW

2.8 C

11.6 C

12.7 C

12.2 C

231 W/m

0.00 mm

18:55

13.1 C

1019.6 hpa

50 %

12.9 km/h aus 117

27.4 km/h aus WNW

2.9 C

10.7 C

11.8 C

12.1 C

131 W/m

0.00 mm

19:00

13.1 C

1019.7 hpa

50 %

11.3 km/h aus 116

24.1 km/h aus WNW

2.9 C

11.1 C

12.1 C

12.0 C

45 W/m

0.00 mm

19:05

12.9 C

1019.7 hpa

49 %

12.9 km/h aus 114

30.6 km/h aus NW

2.5 C

10.6 C

11.6 C

11.9 C

42 W/m

0.00 mm

19:10

12.9 C

1019.7 hpa

50 %

8.0 km/h aus 117

20.9 km/h aus WNW

2.8 C

11.5 C

12.5 C

11.9 C

40 W/m

0.00 mm

19:15

12.9 C

1019.9 hpa

50 %

6.4 km/h aus 116

24.1 km/h aus NW

2.8 C

11.8 C

12.8 C

11.9 C

39 W/m

0.00 mm

19:20

12.9 C

1019.9 hpa

49 %

12.9 km/h aus 116

22.5 km/h aus WNW

2.4 C

10.4 C

11.5 C

11.8 C

37 W/m

0.00 mm

19:25

12.8 C

1019.9 hpa

49 %

12.9 km/h aus 117

20.9 km/h aus NW

2.3 C

10.3 C

11.4 C

11.7 C

36 W/m

0.00 mm

19:30

12.7 C

1020.1 hpa

50 %

12.9 km/h aus 115

30.6 km/h aus WNW

2.5 C

10.3 C

11.3 C

11.7 C

35 W/m

0.00 mm

19:35

12.6 C

1020.1 hpa

50 %

11.3 km/h aus 115

22.5 km/h aus NW

2.5 C

10.6 C

11.6 C

11.6 C

34 W/m

0.00 mm

19:40

12.4 C

1020.1 hpa

50 %

9.7 km/h aus 117

22.5 km/h aus WNW

2.3 C

10.7 C

11.6 C

11.5 C

33 W/m

0.00 mm

19:45

12.4 C

1020.3 hpa

52 %

9.7 km/h aus 116

22.5 km/h aus NW

2.8 C

10.7 C

11.6 C

11.5 C

32 W/m

0.00 mm

19:50

12.3 C

1020.3 hpa

52 %

4.8 km/h aus 116

17.7 km/h aus NNW

2.7 C

11.4 C

12.3 C

11.4 C

30 W/m

0.00 mm

19:55

12.2 C

1020.3 hpa

51 %

9.7 km/h aus 114

20.9 km/h aus NNW

2.3 C

10.4 C

11.3 C

11.3 C

28 W/m

0.00 mm

20:00

12.1 C

1020.6 hpa

52 %

6.4 km/h aus 114

22.5 km/h aus WNW

2.5 C

10.8 C

11.7 C

11.2 C

26 W/m

0.00 mm

20:05

11.9 C

1020.6 hpa

52 %

8.0 km/h aus 118

20.9 km/h aus NW

2.4 C

10.4 C

11.3 C

11.1 C

25 W/m

0.00 mm

20:10

11.8 C

1020.6 hpa

53 %

3.2 km/h aus 117

17.7 km/h aus WNW

2.6 C

11.0 C

11.8 C

11.0 C

23 W/m

0.00 mm

20:15

11.7 C

1020.8 hpa

54 %

8.0 km/h aus 117

24.1 km/h aus NW

2.7 C

10.2 C

11.0 C

10.9 C

21 W/m

0.00 mm

20:20

11.6 C

1020.8 hpa

55 %

6.4 km/h aus 117

17.7 km/h aus NW

2.9 C

10.4 C

11.2 C

10.8 C

19 W/m

0.00 mm

20:25

11.4 C

1020.8 hpa

55 %

4.8 km/h aus 114

20.9 km/h aus NW

2.7 C

10.7 C

11.4 C

10.7 C

17 W/m

0.00 mm

20:30

11.3 C

1021.1 hpa

55 %

8.0 km/h aus 116

17.7 km/h aus NW

2.6 C

9.8 C

10.6 C

10.6 C

15 W/m

0.00 mm

20:35

11.2 C

1021.1 hpa

56 %

11.3 km/h aus 117

22.5 km/h aus NW

2.8 C

9.2 C

9.9 C

10.6 C

13 W/m

0.00 mm

20:40

11.1 C

1021.1 hpa

56 %

11.3 km/h aus 117

25.7 km/h aus WNW

2.6 C

9.1 C

9.7 C

10.4 C

11 W/m

0.00 mm

20:45

10.9 C

1021.3 hpa

57 %

9.7 km/h aus 117

25.7 km/h aus NW

2.7 C

9.2 C

9.8 C

10.3 C

8 W/m

0.00 mm

20:50

10.8 C

1021.3 hpa

58 %

4.8 km/h aus 114

16.1 km/h aus NW

2.8 C

10.1 C

10.7 C

10.2 C

6 W/m

0.00 mm

20:55

10.6 C

1021.3 hpa

58 %

3.2 km/h aus 114

14.5 km/h aus NW

2.7 C

10.1 C

10.6 C

10.1 C

4 W/m

0.00 mm

21:00

10.5 C

1021.7 hpa

59 %

3.2 km/h aus 117

14.5 km/h aus WNW

2.8 C

10.0 C

10.5 C

10.0 C

0 W/m

0.00 mm

21:05

10.3 C

1021.7 hpa

59 %

4.8 km/h aus 117

11.3 km/h aus WNW

2.7 C

9.7 C

10.2 C

9.8 C

0 W/m

0.00 mm

21:10

10.2 C

1021.7 hpa

60 %

3.2 km/h aus 117

11.3 km/h aus WNW

2.7 C

9.7 C

10.2 C

9.7 C

0 W/m

0.00 mm

21:15

10.0 C

1021.9 hpa

61 %

3.2 km/h aus 116

9.7 km/h aus NW

2.8 C

9.6 C

10.0 C

9.6 C

0 W/m

0.00 mm

21:20

9.9 C

1021.9 hpa

62 %

3.2 km/h aus 114

11.3 km/h aus NW

2.9 C

9.5 C

9.9 C

9.5 C

0 W/m

0.00 mm

21:25

9.7 C

1021.9 hpa

62 %

4.8 km/h aus 115

11.3 km/h aus WNW

2.8 C

9.1 C

9.5 C

9.3 C

0 W/m

0.00 mm

21:30

9.6 C

1022.2 hpa

62 %

3.2 km/h aus 117

9.7 km/h aus NW

2.6 C

9.2 C

9.6 C

9.2 C

0 W/m

0.00 mm

21:35

9.4 C

1022.2 hpa

63 %

4.8 km/h aus 117

14.5 km/h aus NW

2.7 C

8.8 C

9.2 C

9.1 C

0 W/m

0.00 mm

21:40

9.3 C

1022.2 hpa

64 %

4.8 km/h aus 117

8.0 km/h aus WNW

2.8 C

8.6 C

9.0 C

8.9 C

0 W/m

0.00 mm

21:45

9.2 C

1022.5 hpa

64 %

6.4 km/h aus 117

14.5 km/h aus WNW

2.7 C

8.1 C

8.4 C

8.8 C

0 W/m

0.00 mm

21:50

9.1 C

1022.5 hpa

64 %

6.4 km/h aus 114

14.5 km/h aus NW

2.6 C

7.9 C

8.3 C

8.7 C

0 W/m

0.00 mm

21:55

8.9 C

1022.5 hpa

65 %

6.4 km/h aus 115

14.5 km/h aus NW

2.7 C

7.8 C

8.2 C

8.6 C

0 W/m

0.00 mm

22:00

8.8 C

1022.8 hpa

65 %

4.8 km/h aus 116

11.3 km/h aus NW

2.6 C

8.1 C

8.5 C

8.4 C

0 W/m

0.00 mm

22:05

8.8 C

1022.8 hpa

65 %

4.8 km/h aus 116

14.5 km/h aus WNW

2.6 C

8.1 C

8.4 C

8.4 C

0 W/m

0.00 mm

22:10

8.7 C

1022.8 hpa

65 %

4.8 km/h aus 116

9.7 km/h aus WNW

2.4 C

7.9 C

8.3 C

8.3 C

0 W/m

0.00 mm

22:15

8.6 C

1023.1 hpa

65 %

4.8 km/h aus 118

11.3 km/h aus WNW

2.3 C

7.8 C

8.2 C

8.2 C

0 W/m

0.00 mm

22:20

8.5 C

1023.1 hpa

65 %

3.2 km/h aus 115

8.0 km/h aus NW

2.3 C

8.1 C

8.5 C

8.1 C

0 W/m

0.00 mm

22:25

8.4 C

1023.1 hpa

66 %

3.2 km/h aus 113

8.0 km/h aus NW

2.5 C

8.1 C

8.4 C

8.1 C

0 W/m

0.00 mm

22:30

8.3 C

1023.3 hpa

66 %

1.6 km/h aus 117

6.4 km/h aus NW

2.3 C

7.9 C

8.3 C

7.9 C

0 W/m

0.00 mm

22:35

8.2 C

1023.3 hpa

67 %

3.2 km/h aus 117

8.0 km/h aus NW

2.5 C

7.9 C

8.2 C

7.9 C

0 W/m

0.00 mm

22:40

8.1 C

1023.3 hpa

67 %

1.6 km/h aus 116

6.4 km/h aus WNW

2.3 C

7.8 C

8.1 C

7.8 C

0 W/m

0.00 mm

22:45

8.0 C

1023.3 hpa

68 %

0.0 km/h aus 115

8.0 km/h aus NW

2.4 C

7.7 C

8.0 C

7.7 C

0 W/m

0.00 mm

22:50

7.9 C

1023.3 hpa

68 %

1.6 km/h aus 114

6.4 km/h aus NW

2.4 C

7.6 C

7.9 C

7.6 C

0 W/m

0.00 mm

22:55

7.8 C

1023.3 hpa

69 %

0.0 km/h aus 114

3.2 km/h aus NW

2.5 C

7.6 C

7.8 C

7.6 C

0 W/m

0.00 mm

23:00

7.7 C

1023.6 hpa

69 %

0.0 km/h aus 117

0.0 km/h aus ---

2.4 C

7.4 C

7.7 C

7.4 C

0 W/m

0.00 mm

23:05

7.6 C

1023.6 hpa

69 %

0.0 km/h aus 117

6.4 km/h aus NW

2.3 C

7.3 C

7.6 C

7.3 C

0 W/m

0.00 mm

23:10

7.6 C

1023.6 hpa

70 %

0.0 km/h aus 117

0.0 km/h aus ---

2.4 C

7.3 C

7.6 C

7.3 C

0 W/m

0.00 mm

23:15

7.4 C

1023.7 hpa

69 %

0.0 km/h aus 117

0.0 km/h aus ---

2.1 C

7.2 C

7.4 C

7.2 C

0 W/m

0.00 mm

23:20

7.4 C

1023.7 hpa

69 %

0.0 km/h aus 117

0.0 km/h aus ---

2.1 C

7.1 C

7.4 C

7.1 C

0 W/m

0.00 mm

23:25

7.3 C

1023.7 hpa

70 %

0.0 km/h aus 114

0.0 km/h aus ---

2.2 C

7.0 C

7.3 C

7.0 C

0 W/m

0.00 mm

23:30

7.2 C

1023.8 hpa

70 %

0.0 km/h aus 116

0.0 km/h aus ---

2.1 C

6.9 C

7.2 C

6.9 C

0 W/m

0.00 mm

23:35

7.0 C

1023.8 hpa

70 %

0.0 km/h aus 117

0.0 km/h aus ---

1.9 C

6.7 C

7.0 C

6.7 C

0 W/m

0.00 mm

23:40

6.8 C

1023.8 hpa

71 %

0.0 km/h aus 116

0.0 km/h aus ---

1.9 C

6.5 C

6.8 C

6.5 C

0 W/m

0.00 mm

23:45

6.6 C

1023.8 hpa

72 %

0.0 km/h aus 117

0.0 km/h aus ---

1.9 C

6.3 C

6.6 C

6.3 C

0 W/m

0.00 mm

23:50

6.4 C

1023.8 hpa

73 %

0.0 km/h aus 117

0.0 km/h aus ---

1.9 C

6.1 C

6.4 C

6.1 C

0 W/m

0.00 mm

23:55

6.2 C

1023.8 hpa

73 %

0.0 km/h aus 116

0.0 km/h aus ---

1.7 C

5.9 C

6.2 C

5.9 C

0 W/m

0.00 mm